| time (UTC) | temp F | wind direction | speed MPH | gust MPH | rain 1hr in | rain 24hr in | rain mn in | humidity % | barometer mb |
| 20260510152353 | 76 | 102 | 3.0 | 7.0 | 0.00 | 0.02 | 0.02 | 64 | 1014.7 |
| 20260510151849 | 75 | 195 | 7.0 | 9.0 | 0.00 | 0.02 | 0.02 | 65 | 1014.4 |
| 20260510151347 | 75 | 198 | 6.0 | 15.0 | 0.00 | 0.02 | 0.02 | 64 | 1014.4 |
| 20260510150843 | 75 | 167 | 7.0 | 10.0 | 0.00 | 0.02 | 0.02 | 65 | 1014.4 |
| 20260510150339 | 75 | 257 | 7.0 | 7.0 | 0.00 | 0.02 | 0.02 | 66 | 1014.5 |
| 20260510145835 | 75 | 160 | 3.0 | 9.0 | 0.00 | 0.02 | 0.02 | 66 | 1014.5 |
| 20260510145331 | 74 | 164 | 2.0 | 11.0 | 0.00 | 0.02 | 0.02 | 66 | 1014.7 |
| 20260510144828 | 73 | 185 | 7.0 | 12.0 | 0.00 | 0.02 | 0.02 | 68 | 1014.5 |
| 20260510144325 | 73 | 157 | 4.0 | 9.0 | 0.00 | 0.02 | 0.02 | 68 | 1014.5 |
| 20260510143825 | 73 | 215 | 3.0 | 8.0 | 0.00 | 0.02 | 0.02 | 69 | 1014.3 |
| 20260510143321 | 72 | 192 | 3.0 | 7.0 | 0.00 | 0.02 | 0.02 | 70 | 1014.6 |
| 20260510142818 | 72 | 137 | 2.0 | 10.0 | 0.00 | 0.02 | 0.02 | 70 | 1014.6 |
| 20260510142315 | 72 | 208 | 4.0 | 11.0 | 0.00 | 0.02 | 0.02 | 71 | 1014.9 |
| 20260510141812 | 72 | 179 | 7.0 | 9.0 | 0.00 | 0.02 | 0.02 | 69 | 1014.8 |
| 20260510141310 | 72 | 162 | 3.0 | 10.0 | 0.00 | 0.02 | 0.02 | 70 | 1015.2 |
| 20260510140807 | 73 | 120 | 5.0 | 6.0 | 0.00 | 0.02 | 0.02 | 69 | 1015.0 |
| 20260510140302 | 72 | 201 | 4.0 | 8.0 | 0.00 | 0.02 | 0.02 | 70 | 1015.0 |
| 20260510135755 | 72 | 153 | 4.0 | 9.0 | 0.00 | 0.02 | 0.02 | 72 | 1015.2 |
| 20260510135251 | 71 | 159 | 5.0 | 7.0 | 0.00 | 0.02 | 0.02 | 72 | 1015.3 |
| 20260510134749 | 71 | 150 | 2.0 | 8.0 | 0.00 | 0.02 | 0.02 | 73 | 1015.4 |
| 20260510134246 | 70 | 227 | 3.0 | 9.0 | 0.00 | 0.02 | 0.02 | 74 | 1015.3 |
| 20260510133742 | 69 | 189 | 2.0 | 5.0 | 0.00 | 0.02 | 0.02 | 77 | 1015.4 |
| 20260510133237 | 68 | 122 | 6.0 | 7.0 | 0.00 | 0.02 | 0.02 | 78 | 1015.4 |
| 20260510132734 | 68 | 116 | 5.0 | 6.0 | 0.00 | 0.02 | 0.02 | 79 | 1015.7 |
| 20260510132232 | 68 | 38 | 2.0 | 7.0 | 0.00 | 0.02 | 0.02 | 80 | 1015.8 |
| 20260510131728 | 67 | 171 | 2.0 | 7.0 | 0.00 | 0.02 | 0.02 | 81 | 1015.7 |
| 20260510131226 | 67 | 120 | 4.0 | 5.0 | 0.00 | 0.02 | 0.02 | 82 | 1015.8 |
| 20260510130722 | 67 | 117 | 2.0 | 5.0 | 0.00 | 0.02 | 0.02 | 82 | 1016.0 |
| 20260510130220 | 67 | 171 | 3.0 | 5.0 | 0.00 | 0.02 | 0.02 | 83 | 1015.8 |
| 20260510125716 | 67 | 184 | 5.0 | 6.0 | 0.00 | 0.02 | 0.02 | 83 | 1015.7 |
| 20260510125212 | 67 | 202 | 5.0 | 5.0 | 0.00 | 0.02 | 0.02 | 83 | 1015.5 |
| 20260510124709 | 67 | 219 | 2.0 | 5.0 | 0.00 | 0.02 | 0.02 | 83 | 1015.5 |
| 20260510124206 | 67 | 140 | 3.0 | 6.0 | 0.00 | 0.02 | 0.02 | 83 | 1015.5 |
| 20260510123701 | 67 | 181 | 3.0 | 6.0 | 0.00 | 0.02 | 0.02 | 83 | 1015.5 |
| 20260510123158 | 67 | 203 | 2.0 | 4.0 | 0.00 | 0.02 | 0.02 | 84 | 1015.4 |
| 20260510122654 | 66 | 165 | 4.0 | 5.0 | 0.00 | 0.02 | 0.02 | 84 | 1015.2 |
| 20260510122150 | 66 | 154 | 2.0 | 8.0 | 0.00 | 0.02 | 0.02 | 84 | 1015.1 |
| 20260510121647 | 66 | 109 | 3.0 | 5.0 | 0.00 | 0.02 | 0.02 | 84 | 1015.1 |
| 20260510121144 | 66 | 128 | 5.0 | 8.0 | 0.00 | 0.02 | 0.02 | 85 | 1015.1 |
| 20260510120642 | 66 | 144 | 3.0 | 8.0 | 0.00 | 0.02 | 0.02 | 86 | 1015.0 |
| 20260510120137 | 66 | 156 | 3.0 | 7.0 | 0.00 | 0.02 | 0.02 | 86 | 1015.2 |
| 20260510115634 | 65 | 132 | 3.0 | 6.0 | 0.00 | 0.02 | 0.02 | 86 | 1015.2 |
| 20260510115132 | 65 | 126 | 5.0 | 5.0 | 0.00 | 0.02 | 0.02 | 86 | 1015.1 |
| 20260510114627 | 65 | 109 | 2.0 | 5.0 | 0.00 | 0.02 | 0.02 | 86 | 1015.2 |
| 20260510114124 | 65 | 138 | 6.0 | 8.0 | 0.00 | 0.02 | 0.02 | 86 | 1015.0 |
| 20260510113619 | 65 | 127 | 5.0 | 7.0 | 0.00 | 0.02 | 0.02 | 86 | 1015.0 |
| 20260510113116 | 65 | 128 | 6.0 | 9.0 | 0.00 | 0.02 | 0.02 | 86 | 1015.0 |
| 20260510112613 | 65 | 89 | 3.0 | 6.0 | 0.00 | 0.02 | 0.02 | 86 | 1014.9 |
| 20260510112109 | 65 | 143 | 4.0 | 6.0 | 0.00 | 0.02 | 0.02 | 85 | 1014.7 |
| 20260510111606 | 65 | 103 | 3.0 | 8.0 | 0.00 | 0.02 | 0.02 | 85 | 1014.6 |
| 20260510111101 | 65 | 122 | 5.0 | 8.0 | 0.00 | 0.02 | 0.02 | 86 | 1014.8 |
| 20260510110552 | 65 | 133 | 4.0 | 7.0 | 0.00 | 0.02 | 0.02 | 86 | 1014.7 |
| 20260510110049 | 65 | 173 | 2.0 | 6.0 | 0.00 | 0.02 | 0.02 | 86 | 1014.8 |
| 20260510105544 | 65 | 120 | 6.0 | 6.0 | 0.00 | 0.02 | 0.02 | 86 | 1014.8 |
| 20260510105039 | 65 | 101 | 3.0 | 5.0 | 0.00 | 0.02 | 0.02 | 86 | 1014.7 |
| 20260510104536 | 65 | 125 | 8.0 | 8.0 | 0.00 | 0.02 | 0.02 | 86 | 1014.9 |
| 20260510104033 | 64 | 93 | 2.0 | 6.0 | 0.00 | 0.02 | 0.02 | 86 | 1014.8 |
| 20260510103530 | 64 | 112 | 4.0 | 8.0 | 0.00 | 0.02 | 0.02 | 86 | 1014.7 |
| 20260510103026 | 64 | 96 | 4.0 | 10.0 | 0.00 | 0.02 | 0.02 | 86 | 1014.6 |
| 20260510102521 | 64 | 78 | 4.0 | 8.0 | 0.00 | 0.02 | 0.02 | 86 | 1014.7 |
| 20260510102018 | 64 | 109 | 4.0 | 4.0 | 0.00 | 0.02 | 0.02 | 86 | 1014.6 |
| 20260510101515 | 64 | 126 | 5.0 | 8.0 | 0.00 | 0.02 | 0.02 | 85 | 1014.3 |
| 20260510101014 | 64 | 130 | 7.0 | 8.0 | 0.00 | 0.02 | 0.02 | 85 | 1014.3 |
| 20260510100510 | 64 | 81 | 6.0 | 8.0 | 0.00 | 0.02 | 0.02 | 85 | 1014.3 |
| 20260510100007 | 64 | 132 | 6.0 | 10.0 | 0.00 | 0.02 | 0.02 | 85 | 1014.0 |
| 20260510095502 | 64 | 113 | 7.0 | 9.0 | 0.00 | 0.02 | 0.02 | 86 | 1014.2 |
| 20260510095001 | 64 | 104 | 7.0 | 10.0 | 0.00 | 0.02 | 0.02 | 87 | 1014.4 |
| 20260510094456 | 64 | 102 | 8.0 | 9.0 | 0.00 | 0.02 | 0.02 | 87 | 1014.6 |
| 20260510093952 | 64 | 93 | 7.0 | 10.0 | 0.00 | 0.02 | 0.02 | 87 | 1014.9 |
| 20260510093448 | 64 | 83 | 5.0 | 13.0 | 0.00 | 0.02 | 0.02 | 86 | 1014.8 |
| 20260510092945 | 64 | 81 | 5.0 | 9.0 | 0.00 | 0.02 | 0.02 | 87 | 1014.8 |
| 20260510092442 | 64 | 102 | 8.0 | 14.0 | 0.00 | 0.02 | 0.02 | 87 | 1014.9 |
| 20260510091942 | 64 | 43 | 4.0 | 10.0 | 0.00 | 0.02 | 0.02 | 87 | 1014.7 |
| 20260510091439 | 64 | 92 | 6.0 | 13.0 | 0.02 | 0.02 | 0.02 | 87 | 1014.7 |
| 20260510090936 | 64 | 101 | 7.0 | 16.0 | 0.02 | 0.02 | 0.02 | 86 | 1014.3 |
| 20260510090432 | 64 | 93 | 9.0 | 15.0 | 0.00 | 0.02 | 0.02 | 83 | 1014.4 |
| 20260510085923 | 65 | 92 | 13.0 | 17.0 | 0.00 | 0.02 | 0.02 | 78 | 1014.2 |
| 20260510085418 | 66 | 107 | 6.0 | 14.0 | 0.00 | 0.02 | 0.02 | 78 | 1013.9 |
| 20260510084913 | 66 | 103 | 7.0 | 13.0 | 0.02 | 0.02 | 0.02 | 78 | 1013.6 |
| 20260510084411 | 67 | 97 | 9.0 | 13.0 | 0.12 | 0.02 | 0.02 | 78 | 1014.0 |
| 20260510083908 | 68 | 76 | 11.0 | 19.0 | 0.07 | 0.01 | 0.01 | 77 | 1014.0 |
| 20260510083404 | 69 | 89 | 12.0 | 18.0 | 0.00 | 0.00 | 0.00 | 74 | 1014.5 |
| 20260510082900 | 71 | 5 | 8.0 | 22.0 | 0.00 | 0.00 | 0.00 | 75 | 1015.0 |
| 20260510082357 | 70 | 3 | 7.0 | 15.0 | 0.00 | 0.00 | 0.00 | 74 | 1014.7 |
| 20260510081856 | 70 | 349 | 6.0 | 9.0 | 0.00 | 0.00 | 0.00 | 74 | 1014.4 |
| 20260510081352 | 70 | 35 | 7.0 | 10.0 | 0.00 | 0.00 | 0.00 | 73 | 1014.1 |
| 20260510080849 | 71 | 19 | 6.0 | 12.0 | 0.00 | 0.00 | 0.00 | 74 | 1014.2 |
| 20260510080342 | 71 | 19 | 4.0 | 12.0 | 0.00 | 0.00 | 0.00 | 76 | 1013.9 |
| 20260510075840 | 71 | 22 | 9.0 | 13.0 | 0.00 | 0.00 | 0.00 | 77 | 1013.9 |
| 20260510075338 | 71 | 46 | 5.0 | 13.0 | 0.00 | 0.00 | 0.00 | 78 | 1013.6 |
| 20260510074834 | 71 | 11 | 6.0 | 18.0 | 0.00 | 0.00 | 0.00 | 78 | 1014.1 |
| 20260510074331 | 72 | 42 | 5.0 | 11.0 | 0.00 | 0.00 | 0.00 | 80 | 1014.1 |
| 20260510073827 | 73 | 15 | 6.0 | 11.0 | 0.00 | 0.00 | 0.00 | 85 | 1013.6 |
| 20260510073323 | 73 | 31 | 3.0 | 9.0 | 0.00 | 0.00 | 0.00 | 85 | 1013.2 |
| 20260510072819 | 73 | 30 | 4.0 | 5.0 | 0.00 | 0.00 | 0.00 | 84 | 1012.6 |
| 20260510072316 | 73 | 21 | 4.0 | 7.0 | 0.00 | 0.00 | 0.00 | 83 | 1012.4 |
| 20260510071813 | 73 | 84 | 2.0 | 8.0 | 0.00 | 0.00 | 0.00 | 83 | 1012.2 |
| 20260510071308 | 73 | 92 | 7.0 | 11.0 | 0.00 | 0.00 | 0.00 | 82 | 1012.1 |
| 20260510070808 | 74 | 84 | 6.0 | 9.0 | 0.00 | 0.00 | 0.00 | 82 | 1011.8 |
| 20260510070304 | 74 | 96 | 5.0 | 12.0 | 0.00 | 0.00 | 0.00 | 81 | 1011.7 |
| 20260510065804 | 74 | 94 | 9.0 | 13.0 | 0.00 | 0.00 | 0.00 | 80 | 1011.8 |
| 20260510065301 | 74 | 104 | 7.0 | 15.0 | 0.00 | 0.00 | 0.00 | 80 | 1011.2 |
| 20260510064758 | 75 | 111 | 8.0 | 12.0 | 0.00 | 0.00 | 0.00 | 79 | 1011.3 |
| 20260510064256 | 75 | 122 | 7.0 | 10.0 | 0.00 | 0.00 | 0.00 | 79 | 1011.5 |
| 20260510063751 | 75 | 131 | 5.0 | 13.0 | 0.00 | 0.00 | 0.00 | 78 | 1011.0 |
| 20260510063248 | 75 | 94 | 10.0 | 12.0 | 0.00 | 0.00 | 0.00 | 77 | 1011.0 |
| 20260510062745 | 75 | 107 | 6.0 | 14.0 | 0.00 | 0.00 | 0.00 | 75 | 1011.2 |
| 20260510062240 | 75 | 91 | 7.0 | 12.0 | 0.00 | 0.00 | 0.00 | 74 | 1011.8 |
| 20260510061736 | 76 | 85 | 7.0 | 13.0 | 0.00 | 0.00 | 0.00 | 73 | 1011.7 |
| 20260510061233 | 76 | 110 | 5.0 | 12.0 | 0.00 | 0.00 | 0.00 | 71 | 1012.2 |
| 20260510060729 | 76 | 80 | 8.0 | 14.0 | 0.00 | 0.00 | 0.00 | 71 | 1013.4 |
| 20260510060226 | 75 | 20 | 8.0 | 14.0 | 0.00 | 0.00 | 0.00 | 72 | 1014.2 |
| 20260510055723 | 75 | 341 | 6.0 | 17.0 | 0.00 | 0.00 | 0.00 | 73 | 1014.5 |
| 20260510055222 | 75 | 355 | 4.0 | 16.0 | 0.00 | 0.00 | 0.00 | 74 | 1014.6 |
| 20260510054721 | 74 | 351 | 8.0 | 17.0 | 0.00 | 0.00 | 0.00 | 74 | 1014.1 |
| 20260510054217 | 74 | 5 | 7.0 | 12.0 | 0.00 | 0.00 | 0.00 | 74 | 1013.9 |
| 20260510053711 | 74 | 9 | 9.0 | 16.0 | 0.00 | 0.00 | 0.00 | 73 | 1013.6 |
| 20260510053208 | 75 | 353 | 9.0 | 17.0 | 0.00 | 0.00 | 0.00 | 71 | 1013.6 |
| 20260510052704 | 75 | 12 | 6.0 | 7.0 | 0.00 | 0.00 | 0.00 | 72 | 1012.5 |
| 20260510052200 | 75 | 36 | 2.0 | 4.0 | 0.00 | 0.00 | 0.00 | 70 | 1011.5 |
| 20260510051656 | 75 | 98 | 3.0 | 4.0 | 0.00 | 0.00 | 0.00 | 70 | 1010.9 |
| 20260510051152 | 75 | 94 | 6.0 | 6.0 | 0.00 | 0.00 | 0.00 | 70 | 1010.6 |
| 20260510050650 | 76 | 110 | 4.0 | 4.0 | 0.00 | 0.00 | 0.00 | 70 | 1010.6 |
| 20260510050147 | 76 | 98 | 3.0 | 5.0 | 0.00 | 0.00 | 0.00 | 69 | 1010.4 |
| 20260510045643 | 76 | 108 | 4.0 | 5.0 | 0.00 | 0.00 | 0.00 | 68 | 1010.3 |
| 20260510045140 | 76 | 80 | 4.0 | 6.0 | 0.00 | 0.00 | 0.00 | 68 | 1010.4 |
| 20260510044636 | 76 | 58 | 4.0 | 5.0 | 0.00 | 0.00 | 0.00 | 69 | 1010.2 |
| 20260510044134 | 76 | 128 | 5.0 | 7.0 | 0.00 | 0.00 | 0.00 | 69 | 1010.0 |
| 20260510043630 | 76 | 112 | 2.0 | 5.0 | 0.00 | 0.00 | 0.00 | 69 | 1010.0 |
| 20260510043126 | 76 | 123 | 3.0 | 5.0 | 0.00 | 0.00 | 0.00 | 69 | 1010.0 |
| 20260510042624 | 76 | 100 | 4.0 | 5.0 | 0.00 | 0.00 | 0.00 | 69 | 1010.0 |
| 20260510042119 | 76 | 36 | 1.0 | 5.0 | 0.00 | 0.00 | 0.00 | 69 | 1009.8 |
| 20260510041617 | 76 | 141 | 3.0 | 9.0 | 0.00 | 0.00 | 0.00 | 69 | 1010.0 |
| 20260510041114 | 76 | 123 | 4.0 | 8.0 | 0.00 | 0.00 | 0.00 | 69 | 1009.8 |
| 20260510040611 | 76 | 96 | 4.0 | 9.0 | 0.00 | 0.00 | 0.00 | 69 | 1010.0 |
| 20260510040108 | 76 | 111 | 1.0 | 9.0 | 0.00 | 0.00 | 0.00 | 69 | 1009.8 |
| 20260510035603 | 75 | 117 | 2.0 | 6.0 | 0.00 | 0.00 | 0.00 | 70 | 1009.9 |
| 20260510035058 | 75 | 96 | 2.0 | 6.0 | 0.00 | 0.00 | 0.00 | 69 | 1010.0 |
| 20260510034556 | 75 | 116 | 2.0 | 5.0 | 0.00 | 0.00 | 0.00 | 70 | 1010.2 |
| 20260510034053 | 75 | 126 | 2.0 | 4.0 | 0.00 | 0.00 | 0.00 | 70 | 1010.1 |
| 20260510033549 | 75 | 150 | 0.0 | 4.0 | 0.00 | 0.00 | 0.00 | 69 | 1010.1 |
| 20260510033047 | 75 | 116 | 2.0 | 5.0 | 0.00 | 0.00 | 0.00 | 69 | 1010.2 |
| 20260510032543 | 75 | 83 | 3.0 | 5.0 | 0.00 | 0.00 | 0.00 | 68 | 1010.2 |
| 20260510032039 | 75 | 62 | 1.0 | 5.0 | 0.00 | 0.00 | 0.00 | 68 | 1010.1 |
| 20260510031539 | 75 | 109 | 1.0 | 4.0 | 0.00 | 0.00 | 0.00 | 67 | 1010.3 |
| 20260510031035 | 76 | 137 | 3.0 | 6.0 | 0.00 | 0.00 | 0.00 | 67 | 1010.2 |
| 20260510030530 | 76 | 95 | 2.0 | 6.0 | 0.00 | 0.00 | 0.00 | 66 | 1010.1 |
| 20260510030028 | 76 | 130 | 2.0 | 5.0 | 0.00 | 0.00 | 0.00 | 66 | 1010.3 |
| 20260510025525 | 76 | 129 | 3.0 | 5.0 | 0.00 | 0.00 | 0.00 | 65 | 1010.4 |
| 20260510025023 | 76 | 128 | 1.0 | 4.0 | 0.00 | 0.00 | 0.00 | 65 | 1010.4 |
| 20260510024519 | 76 | 109 | 2.0 | 4.0 | 0.00 | 0.00 | 0.00 | 64 | 1010.1 |
| 20260510024015 | 76 | 101 | 2.0 | 4.0 | 0.00 | 0.00 | 0.00 | 64 | 1010.3 |
| 20260510023511 | 76 | 112 | 2.0 | 5.0 | 0.00 | 0.00 | 0.00 | 63 | 1010.3 |
| 20260510023009 | 76 | 103 | 3.0 | 5.0 | 0.00 | 0.00 | 0.00 | 63 | 1010.2 |
| 20260510022508 | 76 | 86 | 3.0 | 3.0 | 0.00 | 0.00 | 0.00 | 63 | 1010.2 |
| 20260510022008 | 76 | 91 | 4.0 | 4.0 | 0.00 | 0.00 | 0.00 | 63 | 1010.2 |
| 20260510021505 | 76 | 89 | 3.0 | 4.0 | 0.00 | 0.00 | 0.00 | 63 | 1010.2 |
| 20260510021002 | 77 | 141 | 4.0 | 5.0 | 0.00 | 0.00 | 0.00 | 62 | 1010.2 |
| 20260510020456 | 77 | 104 | 3.0 | 5.0 | 0.00 | 0.00 | 0.00 | 62 | 1010.1 |
| 20260510015952 | 77 | 122 | 3.0 | 4.0 | 0.00 | 0.00 | 0.00 | 62 | 1010.2 |
| 20260510015448 | 77 | 85 | 2.0 | 4.0 | 0.00 | 0.00 | 0.00 | 61 | 1010.1 |
| 20260510014943 | 78 | 112 | 2.0 | 3.0 | 0.00 | 0.00 | 0.00 | 61 | 1010.1 |
| 20260510014441 | 78 | 94 | 3.0 | 4.0 | 0.00 | 0.00 | 0.00 | 62 | 1010.0 |
| 20260510013938 | 78 | 112 | 3.0 | 5.0 | 0.00 | 0.00 | 0.00 | 62 | 1010.1 |
| 20260510013432 | 78 | 87 | 2.0 | 5.0 | 0.00 | 0.00 | 0.00 | 62 | 1009.7 |
| 20260510012928 | 78 | 106 | 3.0 | 5.0 | 0.00 | 0.00 | 0.00 | 61 | 1009.8 |
| 20260510012423 | 79 | 112 | 4.0 | 6.0 | 0.00 | 0.00 | 0.00 | 61 | 1009.9 |
| 20260510011918 | 79 | 109 | 6.0 | 6.0 | 0.00 | 0.00 | 0.00 | 61 | 1009.7 |
| 20260510011413 | 79 | 138 | 2.0 | 8.0 | 0.00 | 0.00 | 0.00 | 61 | 1009.6 |
| 20260510010909 | 80 | 91 | 4.0 | 5.0 | 0.00 | 0.00 | 0.00 | 61 | 1009.5 |
| 20260510010407 | 80 | 78 | 5.0 | 6.0 | 0.00 | 0.00 | 0.00 | 61 | 1009.4 |
| 20260510005903 | 80 | 101 | 2.0 | 5.0 | 0.00 | 0.00 | 0.00 | 60 | 1009.6 |
| 20260510005400 | 81 | 92 | 3.0 | 6.0 | 0.00 | 0.00 | 0.00 | 59 | 1009.5 |
| 20260510004857 | 81 | 96 | 4.0 | 5.0 | 0.00 | 0.00 | 0.00 | 59 | 1009.4 |
| 20260510004355 | 82 | 101 | 4.0 | 6.0 | 0.00 | 0.00 | 0.00 | 58 | 1009.2 |
| 20260510003852 | 82 | 92 | 4.0 | 7.0 | 0.00 | 0.00 | 0.00 | 59 | 1009.4 |
| 20260510003349 | 82 | 93 | 4.0 | 4.0 | 0.00 | 0.00 | 0.00 | 59 | 1009.1 |
| 20260510002848 | 83 | 104 | 7.0 | 9.0 | 0.00 | 0.00 | 0.00 | 57 | 1009.2 |
| 20260510002345 | 83 | 98 | 3.0 | 8.0 | 0.00 | 0.00 | 0.00 | 57 | 1009.2 |
| 20260510001842 | 83 | 96 | 3.0 | 7.0 | 0.00 | 0.00 | 0.00 | 58 | 1009.2 |
| 20260510001340 | 83 | 109 | 3.0 | 8.0 | 0.00 | 0.00 | 0.00 | 57 | 1009.2 |
| 20260510000836 | 84 | 69 | 5.0 | 7.0 | 0.00 | 0.00 | 0.00 | 57 | 1009.3 |
| 20260510000333 | 84 | 105 | 8.0 | 9.0 | 0.00 | 0.00 | 0.00 | 56 | 1009.4 |
| 20260509235830 | 84 | 111 | 3.0 | 7.0 | 0.00 | 0.00 | 0.00 | 56 | 1009.2 |
| 20260509235326 | 84 | 97 | 7.0 | 10.0 | 0.00 | 0.00 | 0.00 | 55 | 1009.3 |
| 20260509234822 | 85 | 84 | 6.0 | 9.0 | 0.00 | 0.00 | 0.00 | 55 | 1009.1 |
| 20260509234319 | 85 | 120 | 4.0 | 8.0 | 0.00 | 0.00 | 0.00 | 55 | 1009.3 |
| 20260509233818 | 85 | 109 | 6.0 | 10.0 | 0.00 | 0.00 | 0.00 | 55 | 1009.4 |
| 20260509233315 | 85 | 120 | 5.0 | 8.0 | 0.00 | 0.00 | 0.00 | 55 | 1009.6 |
| 20260509232810 | 85 | 120 | 3.0 | 7.0 | 0.00 | 0.00 | 0.00 | 56 | 1009.2 |
| 20260509232308 | 85 | 73 | 5.0 | 10.0 | 0.00 | 0.00 | 0.00 | 55 | 1009.6 |
| 20260509231804 | 85 | 92 | 9.0 | 12.0 | 0.00 | 0.00 | 0.00 | 54 | 1009.4 |
| 20260509231301 | 86 | 82 | 7.0 | 11.0 | 0.00 | 0.00 | 0.00 | 54 | 1009.3 |
| 20260509230759 | 86 | 99 | 4.0 | 10.0 | 0.00 | 0.00 | 0.00 | 53 | 1009.4 |
| 20260509230256 | 86 | 95 | 2.0 | 7.0 | 0.00 | 0.00 | 0.00 | 55 | 1009.3 |
| 20260509225751 | 86 | 70 | 3.0 | 9.0 | 0.00 | 0.00 | 0.00 | 52 | 1009.4 |
| 20260509225247 | 86 | 92 | 9.0 | 10.0 | 0.00 | 0.00 | 0.00 | 53 | 1009.4 |
| 20260509224743 | 87 | 91 | 6.0 | 7.0 | 0.00 | 0.00 | 0.00 | 51 | 1009.2 |
| 20260509224241 | 87 | 110 | 6.0 | 8.0 | 0.00 | 0.00 | 0.00 | 51 | 1009.1 |
| 20260509223737 | 87 | 95 | 8.0 | 10.0 | 0.00 | 0.00 | 0.00 | 51 | 1009.3 |
| 20260509223234 | 87 | 114 | 3.0 | 6.0 | 0.00 | 0.00 | 0.00 | 47 | 1009.2 |
| 20260509222731 | 88 | 48 | 2.0 | 5.0 | 0.00 | 0.00 | 0.00 | 42 | 1009.2 |
| 20260509222226 | 88 | 26 | 5.0 | 8.0 | 0.00 | 0.00 | 0.00 | 43 | 1009.0 |
| 20260509221722 | 88 | 51 | 2.0 | 3.0 | 0.00 | 0.00 | 0.00 | 45 | 1009.3 |
| 20260509221219 | 87 | 106 | 4.0 | 7.0 | 0.00 | 0.00 | 0.00 | 43 | 1009.2 |
| 20260509220714 | 87 | 96 | 5.0 | 5.0 | 0.00 | 0.00 | 0.00 | 42 | 1009.3 |
| 20260509220211 | 87 | 80 | 7.0 | 7.0 | 0.00 | 0.00 | 0.00 | 42 | 1009.1 |
| 20260509215707 | 87 | 87 | 3.0 | 6.0 | 0.00 | 0.00 | 0.00 | 40 | 1009.2 |
| 20260509215204 | 87 | 36 | 3.0 | 4.0 | 0.00 | 0.00 | 0.00 | 43 | 1009.4 |
| 20260509214701 | 87 | 96 | 3.0 | 9.0 | 0.00 | 0.00 | 0.00 | 41 | 1009.5 |
| 20260509214158 | 87 | 42 | 2.0 | 7.0 | 0.00 | 0.00 | 0.00 | 45 | 1009.5 |
| 20260509213655 | 87 | 118 | 5.0 | 6.0 | 0.00 | 0.00 | 0.00 | 43 | 1009.4 |
| 20260509213150 | 88 | 47 | 5.0 | 9.0 | 0.00 | 0.00 | 0.00 | 46 | 1009.5 |
| 20260509212648 | 88 | 48 | 1.0 | 3.0 | 0.00 | 0.00 | 0.00 | 42 | 1009.5 |
| 20260509212144 | 87 | 89 | 5.0 | 7.0 | 0.00 | 0.00 | 0.00 | 45 | 1009.5 |
| 20260509211640 | 87 | 18 | 5.0 | 6.0 | 0.00 | 0.00 | 0.00 | 41 | 1009.7 |
| 20260509211137 | 88 | 2 | 5.0 | 8.0 | 0.00 | 0.00 | 0.00 | 40 | 1009.7 |
| 20260509210635 | 88 | 22 | 3.0 | 8.0 | 0.00 | 0.00 | 0.00 | 41 | 1009.8 |
| 20260509210131 | 87 | 320 | 3.0 | 3.0 | 0.00 | 0.00 | 0.00 | 43 | 1009.9 |
| 20260509205626 | 87 | 19 | 7.0 | 7.0 | 0.00 | 0.00 | 0.00 | 43 | 1010.0 |
| 20260509205120 | 87 | 63 | 1.0 | 5.0 | 0.00 | 0.00 | 0.00 | 44 | 1010.0 |
| 20260509204617 | 87 | 80 | 1.0 | 3.0 | 0.00 | 0.00 | 0.00 | 48 | 1010.1 |
| 20260509204114 | 87 | 119 | 5.0 | 6.0 | 0.00 | 0.00 | 0.00 | 44 | 1010.2 |
| 20260509203610 | 86 | 96 | 3.0 | 5.0 | 0.00 | 0.00 | 0.00 | 46 | 1010.3 |
| 20260509203108 | 86 | 115 | 3.0 | 8.0 | 0.00 | 0.00 | 0.00 | 47 | 1010.3 |
| 20260509202602 | 86 | 124 | 6.0 | 8.0 | 0.00 | 0.00 | 0.00 | 46 | 1010.2 |
| 20260509202058 | 87 | 56 | 3.0 | 11.0 | 0.00 | 0.00 | 0.00 | 46 | 1010.1 |
| 20260509201553 | 87 | 77 | 2.0 | 3.0 | 0.00 | 0.00 | 0.00 | 46 | 1010.4 |
| 20260509201051 | 86 | 328 | 2.0 | 6.0 | 0.00 | 0.00 | 0.00 | 46 | 1010.3 |
| 20260509200550 | 86 | 41 | 4.0 | 12.0 | 0.00 | 0.00 | 0.00 | 45 | 1010.4 |
| 20260509200047 | 86 | 93 | 6.0 | 7.0 | 0.00 | 0.00 | 0.00 | 45 | 1010.5 |
| 20260509195543 | 86 | 10 | 8.0 | 9.0 | 0.00 | 0.00 | 0.00 | 46 | 1010.6 |
| 20260509195038 | 86 | 14 | 4.0 | 5.0 | 0.00 | 0.00 | 0.00 | 50 | 1010.7 |
| 20260509194533 | 85 | 59 | 2.0 | 5.0 | 0.00 | 0.00 | 0.00 | 48 | 1010.7 |
| 20260509194030 | 85 | 19 | 5.0 | 8.0 | 0.00 | 0.00 | 0.00 | 48 | 1010.8 |
| 20260509193530 | 85 | 341 | 0.0 | 7.0 | 0.00 | 0.00 | 0.00 | 51 | 1010.9 |
| 20260509193027 | 86 | 46 | 8.0 | 9.0 | 0.00 | 0.00 | 0.00 | 53 | 1010.6 |
| 20260509192523 | 85 | 93 | 5.0 | 7.0 | 0.00 | 0.00 | 0.00 | 48 | 1010.7 |
| 20260509192019 | 84 | 257 | 4.0 | 6.0 | 0.00 | 0.00 | 0.00 | 50 | 1010.7 |
| 20260509191513 | 84 | 105 | 4.0 | 9.0 | 0.00 | 0.00 | 0.00 | 51 | 1010.9 |
| 20260509191009 | 84 | 356 | 3.0 | 9.0 | 0.00 | 0.00 | 0.00 | 53 | 1010.9 |
| 20260509190506 | 84 | 13 | 4.0 | 6.0 | 0.00 | 0.00 | 0.00 | 52 | 1011.0 |
| 20260509190005 | 84 | 303 | 3.0 | 7.0 | 0.00 | 0.00 | 0.00 | 52 | 1010.9 |
| 20260509185501 | 84 | 26 | 2.0 | 6.0 | 0.00 | 0.00 | 0.00 | 57 | 1011.0 |
| 20260509184957 | 84 | 65 | 5.0 | 7.0 | 0.00 | 0.00 | 0.00 | 58 | 1011.1 |
| 20260509184456 | 84 | 352 | 5.0 | 7.0 | 0.00 | 0.00 | 0.00 | 58 | 1011.1 |
| 20260509183952 | 83 | 312 | 3.0 | 5.0 | 0.00 | 0.00 | 0.00 | 55 | 1011.0 |
| 20260509183447 | 83 | 316 | 4.0 | 8.0 | 0.00 | 0.00 | 0.00 | 58 | 1011.0 |
| 20260509182943 | 84 | 38 | 3.0 | 6.0 | 0.00 | 0.00 | 0.00 | 56 | 1011.2 |
| 20260509182440 | 83 | 347 | 7.0 | 10.0 | 0.00 | 0.00 | 0.00 | 56 | 1011.2 |
| 20260509181938 | 82 | 0 | 5.0 | 8.0 | 0.00 | 0.00 | 0.00 | 61 | 1011.2 |
| 20260509181435 | 82 | 35 | 6.0 | 10.0 | 0.00 | 0.00 | 0.00 | 63 | 1011.3 |
| 20260509180933 | 82 | 75 | 4.0 | 11.0 | 0.00 | 0.00 | 0.00 | 62 | 1011.5 |
| 20260509180428 | 82 | 68 | 5.0 | 11.0 | 0.00 | 0.00 | 0.00 | 63 | 1011.5 |
| 20260509175925 | 82 | 33 | 6.0 | 9.0 | 0.00 | 0.00 | 0.00 | 63 | 1011.8 |
| 20260509175422 | 82 | 335 | 4.0 | 7.0 | 0.00 | 0.00 | 0.00 | 64 | 1011.7 |
| 20260509174917 | 81 | 339 | 5.0 | 8.0 | 0.00 | 0.00 | 0.00 | 65 | 1011.8 |
| 20260509174413 | 81 | 340 | 5.0 | 9.0 | 0.00 | 0.00 | 0.00 | 66 | 1011.9 |
| 20260509173909 | 81 | 355 | 6.0 | 6.0 | 0.00 | 0.00 | 0.00 | 68 | 1011.9 |
| 20260509173404 | 81 | 70 | 3.0 | 7.0 | 0.00 | 0.00 | 0.00 | 67 | 1012.0 |
| 20260509172901 | 81 | 28 | 5.0 | 10.0 | 0.00 | 0.00 | 0.00 | 65 | 1011.9 |
| 20260509172357 | 81 | 345 | 4.0 | 9.0 | 0.00 | 0.00 | 0.00 | 66 | 1011.9 |
| 20260509171853 | 80 | 40 | 3.0 | 9.0 | 0.00 | 0.00 | 0.00 | 67 | 1012.0 |
| 20260509171349 | 80 | 40 | 3.0 | 9.0 | 0.00 | 0.00 | 0.00 | 67 | 1012.0 |
| 20260509170845 | 79 | 2 | 6.0 | 10.0 | 0.00 | 0.00 | 0.00 | 69 | 1012.1 |
| 20260509170336 | 80 | 16 | 1.0 | 7.0 | 0.00 | 0.00 | 0.00 | 67 | 1012.0 |
| 20260509165836 | 80 | 337 | 4.0 | 6.0 | 0.00 | 0.00 | 0.00 | 69 | 1012.1 |
| 20260509165330 | 79 | 4 | 4.0 | 5.0 | 0.00 | 0.00 | 0.00 | 70 | 1012.1 |
| 20260509164826 | 79 | 332 | 5.0 | 7.0 | 0.00 | 0.00 | 0.00 | 69 | 1012.2 |
| 20260509164323 | 79 | 306 | 4.0 | 6.0 | 0.00 | 0.00 | 0.00 | 70 | 1012.4 |
| 20260509163819 | 78 | 359 | 6.0 | 10.0 | 0.00 | 0.00 | 0.00 | 71 | 1012.3 |
| 20260509163317 | 78 | 301 | 7.0 | 8.0 | 0.00 | 0.00 | 0.00 | 70 | 1012.1 |
| 20260509162816 | 78 | 320 | 2.0 | 8.0 | 0.00 | 0.00 | 0.00 | 71 | 1012.4 |
| 20260509162309 | 78 | 321 | 3.0 | 3.0 | 0.00 | 0.00 | 0.00 | 70 | 1012.2 |
| 20260509161805 | 78 | 357 | 4.0 | 7.0 | 0.00 | 0.00 | 0.00 | 71 | 1012.4 |
| 20260509161301 | 79 | 293 | 4.0 | 9.0 | 0.00 | 0.00 | 0.00 | 71 | 1012.2 |
| 20260509160757 | 78 | 345 | 3.0 | 6.0 | 0.00 | 0.00 | 0.00 | 73 | 1012.4 |
| 20260509160254 | 77 | 253 | 4.0 | 6.0 | 0.00 | 0.00 | 0.00 | 73 | 1012.3 |
| 20260509155748 | 77 | 348 | 4.0 | 7.0 | 0.00 | 0.00 | 0.00 | 72 | 1012.1 |
| 20260509155246 | 78 | 42 | 5.0 | 9.0 | 0.00 | 0.00 | 0.00 | 72 | 1012.1 |
| 20260509154741 | 77 | 222 | 5.0 | 6.0 | 0.00 | 0.00 | 0.00 | 72 | 1012.4 |
| 20260509154239 | 77 | 257 | 5.0 | 6.0 | 0.00 | 0.00 | 0.00 | 73 | 1012.3 |
| 20260509153736 | 76 | 313 | 8.0 | 9.0 | 0.00 | 0.00 | 0.00 | 74 | 1012.3 |
| 20260509153231 | 76 | 260 | 7.0 | 9.0 | 0.00 | 0.00 | 0.00 | 75 | 1012.2 |